ATLAS AGENA B DEB, 3121

Orbit data source: Space-Track

ATLAS AGENA B DEB, 3121 is space debris in LEO originally from a launch on Fri, 19 Jul 1963 UTC via an ATLAS AGENA B launch vehicle from the Air Force Western Test Range (AFWTR). Debris objects in space refer to the collection of defunct objects orbiting the Earth. Examples of debris include non-operational satellites, rocket bodies, and fragments generated from explosions, collisions, or faulty payload assembly.

Loading next visibility...
ATLAS AGENA B DEB details
Identifier
3121, 1963-030F
Orbit
LEO
Last TLE update1 day ago
Origin
Flag of USUSAF SSD (US)
ManufacturerMIT-LL
MissionSpacecraft
Bus & MotorUnknown
Mass8 kg wet, 8 kg dry
Launch date (UTC)
1963-07-19 (61 years ago)
Launch vehicle
ATLAS AGENA B
Launch site
Air Force Western Test Range (AFWTR)
Object type
Payload
Rocket body
Debris
Shape & HBRUnknown
Radar Cross SectionMedium (>0.1 m² and <1 m²)

Expand to show TLE details & history

TLE from 1 day ago
0 ATLAS AGENA B DEB
1 03121U 63030F   24355.10325087  .00000008  00000-0  26605-2 0  9993
2 03121  88.4066 238.7099 0032185 250.6694 109.0675  8.57967883160107
Epoch: 2024-12-20T02:28Z
Definitive object data (Epoch: 2024-12-20T02:28:40.875Z)
Latitude0.00004°
Longitude112.36602°
Altitude3,713.821 km
Speed6.282 km/s
True Right ascension15h 54m 50s
True Declination0° 00' 00"
Sunlit
Object was in daylight at TLE epoch
Visualization TLE readout
Latitude60.19873°
Longitude-70.48726°
Altitude3,731.617 km
Speed6.278 km/s
Apparent Right ascension01h 54m 03s
Apparent Declination28° 01' 41"
Sunlit
Object is in daylight
Visualization observer readout
Local Sidereal Time12:01:25
Azimuth334.152° NNW
Elevation-17.181°
Doppler factor1
Orbital elements
Apogee altitude3,731.208 km
Perigee altitude3,666.343 km
Semi-major axis10,076.913 km
Eccentricity0.0032185
Inclination88.4066°
RAAN238.7099°
Arg. of periapsis250.6694°
True anomaly109.41562°
Mean anomaly109.0675°
Eccentric anomaly109.24161°
Mean motion2.14562 °/min
BSTAR0.0026605
Orbital period167.78 mins
Loading maneuver chart data...
Loading historical data...
Loading historical data...
Loading historical data...
Loading historical data...
Loading historical data...
Loading historical data...
Loading historical data...

ATLAS AGENA B DEB Visibility forecast

Observer location: undefined°, undefined

Span
Click to sort rows by Start time (UTC) header in descending order
Start Az.
Max El. time (UTC)
Max El. Az.
Max El.
End time (UTC)
End Az.
33 mins2024-12-21 14:55:32.090Z131.519° SE2024-12-21 15:11:32.090Z71.625° E33.679°2024-12-21 15:28:32.090Z7.898° NNE
36 mins2024-12-21 17:40:32.090Z199.632° SSW2024-12-21 17:57:32.090Z271.619° WNW40.846°2024-12-21 18:16:32.090Z356.541° N
7 mins2024-12-21 20:50:32.090Z304.282° NW2024-12-21 20:53:32.090Z314.028° NW10.867°2024-12-21 20:57:32.090Z327.008° NNW
35 mins2024-12-22 02:50:32.090Z7.085° NNE2024-12-22 03:07:32.090Z75.883° E35.347°2024-12-22 03:25:32.090Z147.045° SSE
34 mins2024-12-22 05:38:32.090Z353.551° N2024-12-22 05:55:32.090Z283.227° WNW39.411°2024-12-22 06:12:32.090Z213.949° SW
|